Regional Weather Roundup
Issued by NWS Burlington, VT

Home | Current Version | Previous Version | Text Only | Print | Product List | Glossary On
Versions: 1 2 3 4 5 6 7 8 9 10 11 12 13 14 15 16 17 18 19 20 21 22 23 24 25 26 27 28 29 30 31 32 33 34 35 36 37 38 39 40 41 42 43 44 45 46 47 48 49 50
000
ASUS41 KBTV 231730
RWRBTV
VERMONT REGIONAL WEATHER ROUNDUP
NATIONAL WEATHER SERVICE BURLINGTON VT
1200 PM EST TUE JAN 23 2018

NOTE: "FAIR" INDICATES FEW OR NO CLOUDS BELOW 12,000 FEET WITH NO
SIGNIFICANT WEATHER AND/OR OBSTRUCTIONS TO VISIBILITY.

* THESE REPORTS ARE NOT UNDER NWS QUALITY CONTROL AND/OR DO NOT
  REPORT WEATHER SUCH AS PRECIPITATION AND FOG.

VTZ001>019-231800-
_____VERMONT_____


CITY           SKY/WX    TMP DP  RH WIND       PRES   REMARKS
BURLINGTON     LGT RAIN  41  39  93 SE10      29.57F
MONTPELIER     RAIN      35  34  96 S8        29.65F FOG     WCI  29
MORRISVILLE    LGT RAIN  34  34 100 SE5       29.62F WCI  30
ST. JOHNSBURY*   N/A     33  33 100 MISG      29.63F
LYNDONVILLE*   HVY RAIN  33  33  99 SE3       29.63F
MIDDLEBURY*    LGT RAIN  43  42  97 S3        29.56F
RUTLAND*       LGT RAIN  41  37  87 SE14      29.57F
SPRINGFIELD    MIX PCPN  32  32 100 CALM      29.62F FOG
HIGHGATE*      RAIN      43  42  96 S14G20    29.51F
NEWPORT*       RAIN      34  33  99 S8        29.60F WCI  27
BENNINGTON     RAIN      46  44  93 CALM      29.54F VSB 1/2
SUTTON*          N/A     32 N/A N/A MISG        N/A

_____LAKE CHAMPLAIN_____


CITY           SKY/WX    TMP DP  RH WIND       PRES   REMARKS
BURTON ISLAND*   N/A     41  41 100 S24G33      N/A  WCI  31
COLCHESTER RF*   N/A     37  37 100 S17         N/A  WCI  28
DIAMOND ISL*     N/A     39  41 100 S8          N/A

$$

NYZ007-026>031-035-052-083-087-231800-
_____NORTHERN NEW YORK_____


CITY           SKY/WX    TMP DP  RH WIND       PRES   REMARKS
PLATTSBURGH    LGT RAIN  39  37  92 SE10      29.53F
SARANAC LAKE   CLOUDY    42  42 100 SW7       29.48F
MASSENA        PTSUNNY   34  34 100 NE7       29.50F FOG     WCI  28
OGDENSBURG*    FAIR      45  43  93 SW3       29.48F
POTSDAM*       SUNNY     46  43  87 SW5       29.47F
WATERTOWN      PTSUNNY   48  43  82 S7        29.50F
FT DRUM        PTSUNNY   44  39  82 S12       29.51F
ALBANY         LGT RAIN  44  42  93 CALM      29.58F FOG
GLENS FALLS    LGT RAIN  35  35 100 E3        29.57F VSB 3/4

$$
NHZ002-005-011-231800-
_____NEW HAMPSHIRE_____


CITY           SKY/WX    TMP DP  RH WIND       PRES   REMARKS
LEBANON        LGT RAIN  34  32  92 NE6       29.66F WCI  29
KEENE          RAIN      34  34 100 N3        29.61F VSB 3/4
MT WASHINGTON  RAIN      34  34 100 S41G49      N/A  VSB 0   WCI  18
PLYMOUTH       MIX PCPN  33  32  98 CALM      29.67F
WHITEFIELD     RAIN      36  36 100 W5        29.60F FOG

$$

_____REGIONAL QUEBEC LOCATIONS_____


CITY           SKY/WX    TMP DP  RH WIND       PRES   REMARKS
MONTREAL       FRZ DRZL  27  25  93 NE17      29.52F FOG     WCI  14
QUEBEC CITY    FRZ RAIN  19  16  86 E26G40    29.73F FOG     WCI   1
SHERBROOKE     RAIN      37  36  93 SE8       29.59F WCI  31

_____REGIONAL ONTARIO LOCATIONS_____


CITY           SKY/WX    TMP DP  RH WIND       PRES   REMARKS
OTTAWA         CLOUDY    32  30  93 E5        29.49F FOG     WCI  27

______KEY______
VSB  - VISIBILITY IN MILES
WCI  - WIND CHILL INDEX
HX   - HEAT INDEX
$$
NNNN




USA.gov is the U.S. government's official web portal to all federal, state and local government web resources and services.